SL-16 DEB, 22619

Orbit data source: Space-Track

SL-16 DEB, 22619 is space debris in LEO originally from a launch on Fri, 26 Mar 1993 UTC launched from the Tyuratam Missile And Space Complex (TTMTR). Debris objects in space refer to the collection of defunct objects orbiting the Earth. Examples of debris include non-operational satellites, rocket bodies, and fragments generated from explosions, collisions, or faulty payload assembly.

Loading next visibility...
Identifier
22619, 1993-016AD
Orbit
LEO
Country
Flag of CISCIS
Related business
Manufacturer
Unknown
Mission
Spacecraft
Bus & Motor
Unknown
Mass
Unknown
Launch date (UTC)
1993-03-26 (33 years ago)
Launch vehicle
Unknown
Launch site
Tyuratam Missile And Space Complex (TTMTR)
Object type
Payload
Rocket body
Debris
Shape & HBR
Unknown shape, 0.3 m
Radar Cross Section
Medium (>0.1 m² and <1 m²)

Expand to show TLE details & history
Last TLE update: 4 hours ago

TLE from 4 hours ago
0 SL-16 DEB
1 22619U 93016AD  25352.95048187  .00000047  00000-0  84463-4 0  9998
2 22619  70.9997 234.6121 0184510  39.4999  60.1025 13.73866271640349
Epoch: 2025-12-18T22:48Z
TLE epoch observation values (Epoch: 2025-12-18T22:48:41.633Z)
Latitude
68.02047°
Longitude
-73.4267°
Altitude
931.128 km
Speed
7.426 km/s
True Right ascension
23h 46m 10s
True Declination
67° 54' 13"
Sunlit
Object was in daylight at epoch
Visualization orbit readout
Latitude
Unknown
Longitude
Unknown
Altitude
Unknown
Speed
Unknown
Apparent Right ascension
Unknown
Apparent Declination
Unknown
Sunlit
N/A
Visualization observer readout
Local Sidereal Time
02:09:23
Azimuth
Unknown
Elevation
Unknown
Doppler factor
Unknown
Orbital elements
Apogee altitude
1,119.521 km
Perigee altitude
847.855 km
Semi-major axis
7,361.825 km
Eccentricity
0.01845
Inclination
70.9997°
RAAN
234.6121°
Arg. of periapsis
39.4999°
True anomaly
61.95643°
Mean anomaly
60.1025°
Eccentric anomaly
61.02736°
Mean motion
3.43609 °/min
Orbital period
104.77 mins
BSTAR
0.000084463
Loading maneuver chart data...
Computing Atmospheric mass density...
Loading historical data...
Loading historical data...
Loading historical data...
Loading historical data...
Loading historical data...
Loading historical data...
Loading historical data...

Documentation

Showing up to 5 results
|